[[{"header":{"parameterUnit":"m.s-1","parameterCategory":1,"la1":30.2991,"la2":30.254,"lo1":-89.0895,"lo2":-89.0444,"dy":0.0017,"dx":0.0017,"nx":28,"ny":28,"refTime":"2025-06-21T03:00:00:Z","depth":0,"parameterNumber":2,"parameterNumberName":"U-component_of_WINDS"},"data":[0,0,0,0,0,0,0,0,0,0,0,0,0,0,0,0,0,0,0,0,0,0,0,0,0,0,0,0,0,0,0,0,0,0,0,0,0,0,0,0,0,0,0,0,0,0,0,0,0,0,0,0,0,0,0,0,0,0,2.1901,2.1902,0,2.1989,2.199,2.1991,2.195,2.1948,2.1946,2.1944,2.2034,2.2039,2.2043,0,0,0,0,0,0,0,0,0,0,0,0,0,2.17,2.1704,2.1901,2.1902,2.1903,2.1988,2.199,2.1991,2.1951,2.1948,2.1945,2.1943,2.2033,2.2038,2.2044,0,0,0,0,0,0,0,0,0,0,0,0,0,2.1787,2.1705,2.1901,2.1893,2.1894,2.1988,2.199,2.1991,2.1951,2.1948,2.1945,2.1942,2.2031,2.2038,2.2044,2.2152,0,0,2.2065,2.2068,0,0,0,0,0,0,0,0,2.1782,2.1795,2.1893,2.1894,2.1894,2.1955,2.1952,2.2045,2.1952,2.1929,2.1944,2.194,2.2011,2.2019,2.2043,2.2156,2.216,2.2065,2.2069,2.2072,2.2074,0,0,0,0,0,0,0,2.1776,2.1791,2.1936,2.1895,2.1896,2.1886,2.1895,2.1969,2.1988,2.1931,2.1928,2.1939,2.201,2.2036,2.2044,2.2161,2.2065,2.2071,2.2075,2.2078,2.2367,2.2371,0,0,0,0,0,0,2.177,2.1786,2.1933,2.1938,2.1829,2.1892,2.1902,2.1939,2.1987,2.1991,2.1942,2.1937,2.2026,2.2037,2.2047,2.2176,2.2072,2.2078,2.2082,2.2363,2.2368,2.2372,0,0,0,0,0,0,2.1766,2.1784,2.1929,2.1861,2.1879,2.1899,2.1941,2.1942,2.1968,2.1995,2.1998,2.1965,2.2024,2.2038,2.2126,2.2179,2.2082,2.2088,2.2359,2.2365,2.237,2.2435,0,0,0,0,0,0,2.1761,2.1783,2.1823,2.1863,2.1883,2.2006,2.1944,2.1947,2.198,2.1974,2.2017,2.2021,2.2023,2.2116,2.2133,2.2187,2.2093,2.2354,2.2362,2.2368,2.2428,2.2442,2.2454,0,0,0,0,0,2.1754,2.1838,2.1826,2.1844,2.1934,2.2009,2.2021,2.2021,2.1984,2.2026,2.2043,2.202,2.2171,2.2126,2.2144,2.22,2.2351,2.236,2.2368,2.2423,2.244,2.2454,0,0,0,0,0,0,2.1805,2.1843,2.183,2.193,2.1967,2.2002,2.2055,2.2039,2.2087,2.208,2.2078,2.2088,2.2179,2.2198,2.2148,2.2307,2.2255,2.2268,2.2291,2.2307,2.232,2.2313,2.2098,0,0,0,0,0,2.1828,2.1886,2.1916,2.2001,2.202,2.2035,2.2067,2.2064,2.2102,2.2118,2.2141,2.2179,2.2235,2.2272,2.2325,2.2431,2.244,2.2479,2.2492,2.2502,2.2513,2.2571,2.2588,2.2399,2.2399,2.2399,0,0,2.1876,2.1904,2.1941,2.2012,2.2041,2.2101,2.2048,2.2113,2.2158,2.2128,2.2212,2.2231,2.2273,2.2371,2.2415,2.239,2.2567,2.2513,2.2521,2.2526,2.2581,2.2599,2.2615,2.2405,2.2404,2.2403,0,0,2.1994,2.2021,2.2095,2.2125,2.2168,2.2177,2.2195,2.2233,2.2244,2.2329,2.2308,2.2361,2.2457,2.2489,2.2517,2.2648,2.2629,2.2665,2.2732,2.2789,2.2803,2.2817,2.2863,2.288,2.2676,2.2676,2.2676,0,2.2049,2.2138,2.2136,2.2203,2.2235,2.221,2.2286,2.2314,2.2373,2.2396,2.2367,2.2488,2.2515,2.2619,2.2651,2.2675,2.2696,2.266,2.2801,2.2815,2.2827,2.2872,2.2889,2.268,2.2679,2.2679,2.2679,0,2.2203,2.2265,2.232,2.2377,2.2415,2.2486,2.2495,2.2535,2.2528,2.254,2.2627,2.2658,2.2717,2.2742,2.2736,2.2846,2.2829,2.2801,2.2749,2.2849,2.2891,2.2908,2.2686,2.2684,2.2683,2.2682,0,0,2.2356,2.2411,2.2431,2.2457,2.2503,2.2551,2.2621,2.2679,2.2713,2.2754,2.2813,2.2895,2.287,2.2902,2.29,2.2949,2.3051,2.2915,2.2916,2.2939,2.3174,2.3195,2.3215,2.3038,2.3042,2.3044,2.3171,0,2.2478,2.26,2.26,2.2714,2.2771,2.2748,2.281,2.2845,2.2858,2.2909,2.2923,2.2982,2.2943,2.2963,2.3011,2.3028,2.3098,2.3019,2.3094,2.3096,2.3084,2.3237,2.3259,2.3377,2.3187,2.319,2.3192,0,2.2636,2.2683,2.2802,2.2839,2.2864,2.2919,2.2971,2.302,2.306,2.3066,2.3103,2.3093,2.3164,2.311,2.3209,2.3156,2.3186,2.3199,2.3204,2.3211,2.315,2.3248,2.3414,2.3432,2.3217,2.3215,2.3214,0,2.2737,2.2829,2.2912,2.2934,2.2981,2.302,2.3041,2.3077,2.3112,2.3158,2.3181,2.3235,2.3265,2.3307,2.3312,2.3272,2.3412,2.3358,2.3419,2.3419,2.345,2.3448,2.3623,2.3469,2.3469,2.3469,2.3468,0,2.2873,2.2947,2.2957,2.3009,2.3091,2.309,2.3171,2.3189,2.3222,2.3276,2.326,2.3311,2.3315,2.3368,2.3372,2.3454,2.3468,2.3475,2.3475,2.3476,2.3475,2.3496,2.3488,2.3473,2.3472,2.3471,2.3471,0,2.2999,2.3009,2.3098,2.3134,2.3145,2.3204,2.3235,2.3284,2.3296,2.3365,2.3381,2.34,2.3461,2.347,2.3543,2.3546,2.3644,2.3635,2.363,2.3629,2.369,2.3684,2.3885,2.3911,2.374,2.3742,2.3743,0,2.3085,2.3141,2.3184,2.3219,2.3242,2.3299,2.3334,2.3336,2.3373,2.3422,2.3466,2.3525,2.3573,2.3673,2.3693,2.3748,2.3741,2.3808,2.375,2.3749,2.3743,2.3739,2.3745,2.3819,2.3821,2.3823,2.3824,0,2.3238,2.324,2.3291,2.3344,2.3387,2.3429,2.3468,2.3498,2.3505,2.3548,2.3611,2.3648,2.3722,2.3782,2.3836,2.3858,2.3843,2.3842,2.3859,2.3861,2.3856,2.386,2.3661,2.3838,2.3836,2.3835,2.3834,2.3834,2.3347,2.3395,2.3433,2.349,2.352,2.3558,2.3606,2.3623,2.3675,2.3735,2.3733,2.3802,2.384,2.3912,2.3938,2.3992,2.3971,2.3995,2.4002,2.4008,2.4014,2.3847,2.4002,2.4002,2.4002,2.4001,2.4001,0,2.3498,2.3521,2.3574,2.363,2.3675,2.3656,2.3699,2.3739,2.3799,2.3836,2.3884,2.3956,2.4014,2.4038,2.4095,2.4134,2.4128,2.4149,2.4146,2.4151,2.403,2.4009,2.4152,2.4152,2.4152,2.4152,2.4152,2.4152,2.3583,2.3664,2.3671,2.3767,2.379,2.3857,2.3883,2.3918,2.3947,2.4028,2.4076,2.4092,2.4124,2.4183,2.4235,2.4241,2.4263,2.4287,2.4289,2.4175,2.416,2.4145,2.4126,2.4291,2.4292,2.4406,2.4407,2.4408]},{"header":{"parameterUnit":"m.s-1","parameterCategory":1,"la1":30.2991,"la2":30.254,"lo1":-89.0895,"lo2":-89.0444,"dy":0.0017,"dx":0.0017,"nx":28,"ny":28,"refTime":"2025-06-21T03:00:00:Z","depth":0,"parameterNumber":3,"parameterNumberName":"V-component_of_WINDS"},"data":[0,0,0,0,0,0,0,0,0,0,0,0,0,0,0,0,0,0,0,0,0,0,0,0,0,0,0,0,0,0,0,0,0,0,0,0,0,0,0,0,0,0,0,0,0,0,0,0,0,0,0,0,0,0,0,0,0,0,-1.3296,-1.3297,0,-1.3372,-1.3373,-1.3374,-1.3403,-1.3403,-1.3403,-1.3403,-1.348,-1.3482,-1.3484,0,0,0,0,0,0,0,0,0,0,0,0,0,-1.3176,-1.3178,-1.3296,-1.3297,-1.3298,-1.3372,-1.3373,-1.3374,-1.3403,-1.3403,-1.3403,-1.3403,-1.3479,-1.3481,-1.3484,0,0,0,0,0,0,0,0,0,0,0,0,0,-1.3237,-1.3178,-1.3296,-1.3321,-1.3324,-1.3372,-1.3373,-1.3374,-1.3403,-1.3403,-1.3403,-1.3402,-1.3478,-1.3481,-1.3484,-1.3511,0,0,-1.3495,-1.3496,0,0,0,0,0,0,0,0,-1.3234,-1.3242,-1.3317,-1.332,-1.3323,-1.3378,-1.3359,-1.342,-1.3403,-1.3373,-1.3403,-1.3402,-1.3446,-1.3452,-1.3467,-1.3515,-1.3518,-1.3495,-1.3497,-1.3499,-1.3499,0,0,0,0,0,0,0,-1.323,-1.3239,-1.3326,-1.3318,-1.3322,-1.3329,-1.3337,-1.3371,-1.341,-1.3376,-1.3378,-1.3387,-1.3448,-1.3463,-1.3469,-1.352,-1.3495,-1.3498,-1.35,-1.3501,-1.3594,-1.3595,0,0,0,0,0,0,-1.3221,-1.3235,-1.3324,-1.3328,-1.3277,-1.3331,-1.3341,-1.3361,-1.341,-1.3417,-1.3387,-1.3388,-1.3458,-1.3465,-1.3472,-1.3507,-1.3498,-1.3502,-1.3504,-1.3594,-1.3595,-1.3595,0,0,0,0,0,0,-1.3218,-1.3229,-1.3321,-1.3282,-1.3295,-1.3334,-1.3356,-1.3362,-1.3378,-1.3419,-1.3426,-1.3396,-1.3458,-1.3467,-1.3502,-1.351,-1.3503,-1.3506,-1.3593,-1.3594,-1.3595,-1.3577,0,0,0,0,0,0,-1.3215,-1.3228,-1.3238,-1.3282,-1.3297,-1.3349,-1.3356,-1.3364,-1.3384,-1.3386,-1.3429,-1.3436,-1.3458,-1.3496,-1.3505,-1.3514,-1.3509,-1.3593,-1.3594,-1.3595,-1.3577,-1.3577,-1.3577,0,0,0,0,0,-1.321,-1.323,-1.3239,-1.3249,-1.3311,-1.335,-1.3358,-1.3384,-1.3385,-1.3396,-1.3422,-1.3434,-1.3508,-1.35,-1.351,-1.352,-1.3592,-1.3593,-1.3594,-1.3577,-1.3577,-1.3577,0,0,0,0,0,0,-1.3185,-1.3236,-1.3246,-1.3281,-1.3311,-1.3355,-1.3369,-1.3383,-1.3413,-1.3413,-1.3444,-1.3454,-1.3486,-1.3507,-1.3497,-1.3549,-1.3551,-1.3554,-1.3534,-1.3535,-1.3534,-1.3529,-1.3512,0,0,0,0,0,-1.3184,-1.3211,-1.3254,-1.3281,-1.3295,-1.333,-1.3347,-1.3365,-1.3397,-1.341,-1.3438,-1.3469,-1.3499,-1.3518,-1.3548,-1.358,-1.359,-1.3592,-1.3592,-1.3592,-1.3594,-1.3613,-1.3615,-1.3598,-1.3598,-1.3598,0,0,-1.3181,-1.3212,-1.3228,-1.3276,-1.3302,-1.3329,-1.334,-1.3369,-1.339,-1.3414,-1.3449,-1.3471,-1.3507,-1.3541,-1.3557,-1.3559,-1.3601,-1.3593,-1.3593,-1.3595,-1.3614,-1.3616,-1.3617,-1.3599,-1.3599,-1.3599,0,0,-1.319,-1.3216,-1.3241,-1.3266,-1.3305,-1.3328,-1.3334,-1.3376,-1.3391,-1.3427,-1.3446,-1.3471,-1.3522,-1.3547,-1.3566,-1.3586,-1.3598,-1.3595,-1.3594,-1.3612,-1.3614,-1.3615,-1.3622,-1.3624,-1.3597,-1.3597,-1.3597,0,-1.3181,-1.3224,-1.3252,-1.328,-1.3301,-1.3325,-1.335,-1.3373,-1.3419,-1.3433,-1.3435,-1.35,-1.3526,-1.3566,-1.3571,-1.3586,-1.3593,-1.3589,-1.3611,-1.3613,-1.3614,-1.3621,-1.3624,-1.3596,-1.3596,-1.3596,-1.3596,0,-1.3212,-1.3241,-1.3256,-1.3301,-1.3323,-1.335,-1.3382,-1.3401,-1.3417,-1.344,-1.3476,-1.3508,-1.3545,-1.3556,-1.3571,-1.3598,-1.3598,-1.3605,-1.3608,-1.3615,-1.3622,-1.3625,-1.3595,-1.3595,-1.3595,-1.3595,0,0,-1.3206,-1.3266,-1.3271,-1.3292,-1.3336,-1.3359,-1.3387,-1.3423,-1.344,-1.3471,-1.3495,-1.3538,-1.3545,-1.3567,-1.3585,-1.3601,-1.3614,-1.3606,-1.3608,-1.3607,-1.3646,-1.364,-1.3643,-1.3624,-1.3624,-1.3625,-1.3643,0,-1.3221,-1.3271,-1.3298,-1.3337,-1.3365,-1.3388,-1.3413,-1.3442,-1.3464,-1.3491,-1.3516,-1.3546,-1.3552,-1.3566,-1.3583,-1.3609,-1.3623,-1.3608,-1.3646,-1.3647,-1.3636,-1.3647,-1.3641,-1.3657,-1.3646,-1.3647,-1.3647,0,-1.3244,-1.3275,-1.3318,-1.3359,-1.3372,-1.3393,-1.3429,-1.3454,-1.3488,-1.3504,-1.3528,-1.3547,-1.3577,-1.3578,-1.362,-1.3609,-1.3626,-1.3642,-1.3643,-1.3647,-1.3647,-1.3651,-1.3662,-1.3664,-1.3652,-1.3651,-1.3651,0,-1.3236,-1.3288,-1.3321,-1.3337,-1.3387,-1.3401,-1.3422,-1.3457,-1.3477,-1.3508,-1.3522,-1.3556,-1.3575,-1.3601,-1.3628,-1.3626,-1.3668,-1.3671,-1.3681,-1.368,-1.3688,-1.3687,-1.3702,-1.37,-1.37,-1.37,-1.3699,0,-1.3249,-1.3274,-1.3317,-1.3337,-1.3366,-1.3396,-1.3423,-1.3446,-1.3477,-1.3501,-1.3524,-1.3547,-1.3582,-1.3609,-1.363,-1.3662,-1.367,-1.3683,-1.3688,-1.3681,-1.3679,-1.3692,-1.3692,-1.37,-1.37,-1.37,-1.37,0,-1.3244,-1.3274,-1.3311,-1.3355,-1.3367,-1.3386,-1.3423,-1.3443,-1.3467,-1.3498,-1.3507,-1.3544,-1.3577,-1.3607,-1.3651,-1.3665,-1.3697,-1.3704,-1.3686,-1.3689,-1.3697,-1.3696,-1.3721,-1.3725,-1.372,-1.372,-1.372,0,-1.325,-1.327,-1.3316,-1.3335,-1.3356,-1.3385,-1.3406,-1.3436,-1.3457,-1.3498,-1.3514,-1.3548,-1.3578,-1.363,-1.366,-1.3694,-1.3702,-1.3708,-1.3707,-1.3699,-1.3702,-1.37,-1.3702,-1.3708,-1.3708,-1.3707,-1.3707,0,-1.3258,-1.3273,-1.3302,-1.3337,-1.3362,-1.3391,-1.342,-1.3434,-1.347,-1.3493,-1.3527,-1.355,-1.3595,-1.3629,-1.3667,-1.3688,-1.3704,-1.3708,-1.3712,-1.3704,-1.3692,-1.3699,-1.3685,-1.3707,-1.3707,-1.3707,-1.3707,-1.3707,-1.3259,-1.3278,-1.3314,-1.3346,-1.3372,-1.3399,-1.342,-1.3446,-1.3476,-1.3515,-1.3531,-1.3566,-1.36,-1.3652,-1.3674,-1.3702,-1.3705,-1.3711,-1.3712,-1.3713,-1.3712,-1.3688,-1.3709,-1.3709,-1.3709,-1.3709,-1.3709,0,-1.3268,-1.3293,-1.3322,-1.3363,-1.3388,-1.3401,-1.3435,-1.3455,-1.3486,-1.3517,-1.3545,-1.3585,-1.3618,-1.3652,-1.3687,-1.3703,-1.3711,-1.3711,-1.371,-1.3715,-1.3707,-1.37,-1.3704,-1.3704,-1.3704,-1.3704,-1.3704,-1.3704,-1.3276,-1.3308,-1.3327,-1.3372,-1.3396,-1.3431,-1.3449,-1.3474,-1.3499,-1.3542,-1.357,-1.3592,-1.3624,-1.3662,-1.3694,-1.3703,-1.3714,-1.3713,-1.3724,-1.3715,-1.3715,-1.3716,-1.3709,-1.3715,-1.3715,-1.3729,-1.3729,-1.3729]}]]